Regional Weather Roundup
Issued by NWS Sterling, VA

Home | Current Version | Previous Version | Graphics & Text | Print | Product List | Glossary On
Versions: 1 2 3 4 5 6 7 8 9 10 11 12 13 14 15 16 17 18 19 20 21 22 23 24 25 26 27 28 29 30 31 32 33 34 35 36 37 38 39 40 41 42 43 44 45 46 47 48 49 50
000
ASUS41 KLWX 040610
RWRLWX

REGIONAL WEATHER ROUNDUP
NATIONAL WEATHER SERVICE BALTIMORE MD/WASHINGTON DC
200 AM EDT SAT JUL 04 2015

Note: "FAIR" indicates few or no clouds below 12,000 feet
with no significant weather and/or obstructions to visibility.
 TC=TEMPERATURE CELSIUS

 * =Non NWS site. Station does not report precipitation (e.g. rain,
    snow, etc.), thunder, or fog.

DCZ001-MDZ009-015-VAZ040>042-051-053>054-040700-
WASHINGTON METRO

CITY           SKY/WX    TMP DP  RH WIND       PRES   REMARKS
WASHINGTON NAT LGT RAIN  73  67  81 E5        29.91F
DULLES         CLOUDY    69  65  86 CALM      29.92S
ANDREWS AFB    CLOUDY    69  68  97 NE3       29.90F
FT BELVOIR     CLOUDY    68  66  94 CALM      29.90F
QUANTICO       CLOUDY    73  66  78 E6        29.90F
COLLEGE PARK*  CLOUDY    70  68  94 CALM      29.91F
LEESBURG*      CLOUDY    70  68  94 CALM      29.93S
MANASSAS*      CLOUDY    70  68  94 CALM        N/A
GAITHERSBURG*  CLOUDY    66  63  88 CALM      29.96F

$$

MDZ006>007-011-014-040700-
BALTIMORE METRO

CITY           SKY/WX    TMP DP  RH WIND       PRES   REMARKS
BWI AIRPORT    CLOUDY    70  64  81 E5        29.91F
MD SCIENCE CTR   N/A     73  65  75 MISG      29.92F
MARTIN STATE   CLOUDY    72  68  88 E6        29.93F
ANNAPOLIS      CLOUDY    73  68  84 SE10      29.90F
FORT MEADE*    CLOUDY    66  63  88 CALM      29.94F

$$

MDZ012-015-019>023-040700-
MARYLAND EASTERN SHORE

CITY           SKY/WX    TMP DP  RH WIND       PRES   REMARKS
OCEAN CITY     CLOUDY    73  68  84 E7        29.91F
SALISBURY      LGT RAIN  70  68  93 E5        29.91F
BAY BRIDGE AP*   N/A     70  64  83 E6        29.91F
CAMBRIDGE*     CLOUDY    72  68  88 E3        29.90F
EASTON*        CLOUDY    71  71 100 CALM      29.95F

$$

MDZ017>025-040700-
SOUTHERN MARYLAND

CITY           SKY/WX    TMP DP  RH WIND       PRES   REMARKS
PATUXENT RIVER LGT RAIN  73  69  87 E12       29.90F
ST INIGOES     CLOUDY    73  69  87 E5        29.89F
LEONARDTOWN*   CLOUDY    70  66  88 E3        29.91F

$$

MDZ003>005-040700-
NORTH CENTRAL MARYLAND

CITY           SKY/WX    TMP DP  RH WIND       PRES   REMARKS
FREDERICK*     CLOUDY    68  68 100 NE3       29.95F
HAGERSTOWN APT CLOUDY    68  63  84 E5        29.93F
WESTMINSTER*   CLOUDY    72  64  78 S3        29.94F

$$

MDZ501>502-040700-
WESTERN MARYLAND

CITY           SKY/WX    TMP DP  RH WIND       PRES   REMARKS
OAKLAND*       CLOUDY    59 N/A N/A SE8       29.96F FOG
CUMBERLAND*    CLOUDY    66  66 100 CALM      29.95F

$$

VAZ025>031-040700-
SHENANDOAH VALLEY

CITY           SKY/WX    TMP DP  RH WIND       PRES   REMARKS
WINCHESTER*    CLOUDY    68  68 100 CALM      29.92F
FRONT ROYAL*   CLOUDY    66  64  94 CALM      29.91S
LURAY*         HVY RAIN  68  68 100 CALM      29.92F
NEW MARKET*    CLOUDY    66  66  98 CALM      29.92S
STAUNTON*      CLOUDY    69  66  93 CALM      29.95F FOG
WAYNESBORO*    CLOUDY    66  65  97 CALM      29.94F

$$

WVZ021-048>050-054>055-040700-
EASTERN WEST VIRGINIA PANHANDLE

CITY           SKY/WX    TMP DP  RH WIND       PRES   REMARKS
MARTINSBURG    CLOUDY    68  65  90 CALM      29.92F FOG
PETERSBURG*    CLOUDY    66  63  90 CALM      29.93F FOG

$$

VAZ036>039-050-040700-
CENTRAL FOOTHILLS

CITY           SKY/WX    TMP DP  RH WIND       PRES   REMARKS
CHARLOTTESVILL CLOUDY    69  66  90 N3        29.91S FOG
CULPEPER*      CLOUDY    67  67  99 CALM      29.92F FOG
ORANGE*        CLOUDY    70  68  94 CALM      29.93S
GORDONSVILLE*  CLOUDY    68  66  94 CALM      29.91S
WARRENTON*     MOCLDY    69  69 100 CALM      29.90F FOG

$$

VAZ055>057-040700-
NORTH AND CENTRAL PIEDMONT

CITY           SKY/WX    TMP DP  RH WIND       PRES   REMARKS
FREDERICKSBRG* CLOUDY    71  71 100 CALM      29.89F
STAFFORD*      CLOUDY    67  65  95 CALM      29.94F FOG

$$

NCZ024-NYZ072-PAZ021-071-VAZ022-071-040700-
OTHER REGIONAL OBSERVATIONS

CITY           SKY/WX    TMP DP  RH WIND       PRES   REMARKS
NEW YORK CITY  CLOUDY    71  60  68 VRB5      30.01S
PHILADELPHIA   CLOUDY    70  65  84 CALM      29.95F
PITTSBURGH     CLOUDY    66  64  93 E3        29.87F FOG
ROANOKE        CLOUDY    68  67  96 CALM      29.95F FOG
RICHMOND       LGT RAIN  71  69  93 NE7       29.86F FOG
RALEIGH        CLOUDY    72  70  93 SW5       29.92S

$$

ANZ530>537-040700-
MARINE OBSERVATIONS

STATION/POSITION TIME  TEMP    WIND        PRES
                       AIR SEA DIR/SP/G
                 (UTC) (F)     (DEG/KT/KT) (MB)
THOMAS PT LIGHT  NOT AVBL
BALT KEY BRIDGE  0500   73     130/  7/ 10 1013.3F
COVE POINT       0500   73     140/ 13/ 17 1013.6F
LEWISETTA        0500   75 79  140/  8/ 10 1012.0F
SOLOMONS ISLAND  0500      80                N/A
PINEY POINT      0518          130/ 10/ 12   N/A

$$




USA.gov is the U.S. government's official web portal to all federal, state and local government web resources and services.